CW9861 Weather Reports


time (UTC)temp
F
wind
direction
speed
knots
gust
knots
rain 1hr
in
rain 24hr
in
rain mn
in
humidity
%
barometer
mb
20260504050457 51 162 2.6 7.0 0.00 0.00 0.00 77 1003.7
20260504045959 51 242 3.5 7.8 0.00 0.00 0.00 77 1003.8
20260504045458 51 210 3.5 8.7 0.00 0.00 0.00 77 1003.9
20260504044958 51 223 2.6 7.8 0.00 0.00 0.00 77 1003.9
20260504044458 51 226 3.5 7.8 0.00 0.00 0.00 77 1004.0
20260504043958 51 165 2.6 7.8 0.00 0.00 0.00 76 1004.0
20260504043459 51 180 1.7 8.7 0.00 0.00 0.00 76 1004.0
20260504042958 51 180 3.5 8.7 0.00 0.00 0.00 76 1004.1
20260504042458 51 266 3.5 7.8 0.00 0.00 0.00 76 1004.1
20260504041958 51 238 3.5 7.8 0.00 0.00 0.00 76 1004.2
20260504041458 51 180 2.6 7.8 0.00 0.00 0.00 76 1004.2
20260504041000 51 220 3.5 11.3 0.00 0.00 0.00 76 1004.2
20260504040458 51 271 5.2 11.3 0.00 0.00 0.00 76 1004.2
20260504035959 51 218 1.7 8.7 0.00 0.00 0.00 75 1004.2
20260504035458 51 180 2.6 11.3 0.00 0.00 0.00 75 1004.3
20260504034959 51 186 4.3 11.3 0.00 0.00 0.00 75 1004.3
20260504034458 51 266 5.2 8.7 0.00 0.00 0.00 75 1004.4
20260504033958 51 166 3.5 8.7 0.00 0.00 0.00 74 1004.6
20260504033458 51 217 4.3 8.7 0.00 0.00 0.00 74 1004.7
20260504015000 53 176 0.9 7.0 0.00 0.00 0.00 68 1004.9
20260504014459 53 234 1.7 5.2 0.00 0.00 0.00 68 1005.0
20260504013959 53 225 0.9 6.1 0.00 0.00 0.00 67 1004.9
20260504013459 53 210 0.9 8.7 0.00 0.00 0.00 67 1004.9
20260504013000 53 214 3.5 8.7 0.00 0.00 0.00 67 1005.0
20260504012459 53 226 2.6 7.0 0.00 0.00 0.00 67 1004.9
20260504011959 53 228 2.6 7.0 0.00 0.00 0.00 67 1004.9
20260504011459 54 183 2.6 6.1 0.00 0.00 0.00 66 1004.9
20260504010959 54 188 0.9 9.6 0.00 0.00 0.00 66 1005.0
20260504010459 54 239 3.5 8.7 0.00 0.00 0.00 66 1005.0
20260504005959 54 157 1.7 8.7 0.00 0.00 0.00 66 1004.9
20260504005458 54 188 3.5 9.6 0.00 0.00 0.00 66 1004.9
20260504004958 54 217 4.3 9.6 0.00 0.00 0.00 66 1004.9
20260504004458 54 230 1.7 9.6 0.00 0.00 0.00 65 1005.1
20260504003958 54 228 3.5 9.6 0.00 0.00 0.00 65 1005.1
20260504003458 54 228 2.6 5.2 0.00 0.00 0.00 65 1005.1
20260504002958 54 190 1.7 7.0 0.00 0.00 0.00 64 1005.0
20260504002458 54 168 2.6 7.0 0.00 0.00 0.00 64 1005.1
20260504001958 55 240 2.6 8.7 0.00 0.00 0.00 63 1005.1
20260504001459 55 252 3.5 12.2 0.00 0.00 0.00 63 1005.1
20260504000958 55 198 7.0 12.2 0.00 0.00 0.00 63 1005.2
20260504000459 55 236 1.7 13.9 0.00 0.00 0.00 63 1005.2
20260503235959 55 249 7.0 13.9 0.00 0.00 0.00 62 1005.3
20260503235458 55 221 5.2 9.6 0.00 0.00 0.00 63 1005.4
20260503234958 55 217 2.6 9.6 0.00 0.00 0.00 63 1005.5
20260503234458 55 188 3.5 9.6 0.00 0.00 0.00 63 1005.4
20260503233958 55 210 2.6 8.7 0.00 0.00 0.00 63 1005.5
20260503233458 55 211 0.9 12.2 0.00 0.00 0.00 62 1005.4
20260503232958 55 201 6.1 12.2 0.00 0.00 0.00 62 1005.6
20260503232458 56 196 3.5 7.8 0.00 0.00 0.00 61 1005.6
20260503231958 56 184 2.6 9.6 0.00 0.00 0.00 62 1005.6
20260503213501 55 303 5.2 12.2 0.00 0.00 0.00 66 1006.9
20260503212959 55 235 4.3 8.7 0.00 0.00 0.00 67 1007.0
20260503212501 55 220 4.3 8.7 0.00 0.00 0.00 67 1007.0
20260503211959 54 236 2.6 12.2 0.00 0.00 0.00 69 1007.0
20260503211459 54 211 3.5 13.0 0.00 0.00 0.00 68 1007.1
20260503210959 54 266 4.3 13.0 0.00 0.00 0.00 69 1007.1
20260503210500 54 210 7.0 12.2 0.00 0.00 0.00 68 1007.2
20260503210000 54 211 4.3 13.9 0.00 0.00 0.00 68 1007.3
20260503205458 53 233 7.0 14.8 0.00 0.00 0.00 69 1007.3
20260503204959 53 194 6.1 14.8 0.00 0.00 0.00 70 1007.4
20260503204458 53 224 6.1 13.0 0.00 0.00 0.00 71 1007.5
20260503203959 53 153 6.1 13.0 0.00 0.00 0.00 70 1007.7
20260503203459 53 235 6.1 15.6 0.00 0.00 0.00 69 1007.7
20260503202959 53 234 8.7 15.6 0.00 0.00 0.00 68 1007.8
20260503202459 53 286 7.8 15.6 0.00 0.00 0.00 67 1007.7
20260503201958 54 251 7.0 20.0 0.00 0.00 0.00 65 1007.9
20260503201458 54 219 7.0 14.8 0.00 0.00 0.00 64 1007.9
20260503200958 54 247 6.1 14.8 0.00 0.00 0.00 63 1007.9
20260503200458 54 224 7.8 14.8 0.00 0.00 0.00 62 1007.9
20260503200001 55 228 7.8 14.8 0.00 0.00 0.00 61 1008.1
20260503195459 55 266 5.2 17.4 0.00 0.00 0.00 60 1008.3
20260503195000 56 242 8.7 17.4 0.00 0.00 0.00 59 1008.1
20260503194459 56 298 7.8 14.8 0.00 0.00 0.00 59 1007.8
20260503194000 57 285 7.0 30.4 0.00 0.00 0.00 57 1007.9
20260503193459 58 247 7.8 30.4 0.00 0.00 0.00 55 1007.9
20260503192959 59 197 5.2 15.6 0.00 0.00 0.00 56 1007.8
20260503192459 60 213 6.1 14.8 0.00 0.00 0.00 55 1007.7
20260503191959 60 271 7.8 15.6 0.00 0.00 0.00 54 1007.7
20260503191459 61 255 4.3 15.6 0.00 0.00 0.00 55 1007.9
20260503190958 60 290 5.2 14.8 0.00 0.00 0.00 53 1007.9
20260503190459 61 211 6.1 17.4 0.00 0.00 0.00 52 1008.0
20260503185959 61 266 6.1 20.9 0.00 0.00 0.00 55 1008.1
20260503174957 61 210 8.7 20.0 0.00 0.00 0.00 49 1008.9
20260503174458 61 238 7.8 20.0 0.00 0.00 0.00 51 1008.9
20260503173958 62 220 7.8 18.2 0.00 0.00 0.00 50 1008.9
20260503173459 62 217 8.7 16.5 0.00 0.00 0.00 50 1009.0
20260503172958 61 266 4.3 13.9 0.00 0.00 0.00 53 1009.0
20260503172458 61 341 6.1 13.9 0.00 0.00 0.00 52 1009.1
20260503171958 61 231 4.3 11.3 0.00 0.00 0.00 53 1009.2
20260503130959 52 249 5.2 10.4 0.00 0.00 0.00 60 1010.5
20260503130458 51 286 4.3 9.6 0.00 0.00 0.00 61 1010.6
20260503110458 39 229 0.9 2.6 0.00 0.00 0.00 74 1010.7
20260503090458 38 199 0.0 2.6 0.00 0.00 0.00 67 1011.2
20260503081459 39 325 0.9 2.6 0.00 0.00 0.00 63 1011.6
20260503080959 39 210 0.0 1.7 0.00 0.00 0.00 62 1011.4
20260503080459 39 276 0.0 3.5 0.00 0.00 0.00 62 1011.5
20260503072458 40 238 3.5 7.8 0.00 0.00 0.00 60 1011.6
20260503071959 40 232 0.9 7.8 0.00 0.00 0.00 60 1011.6
20260503071458 40 271 2.6 7.0 0.00 0.00 0.00 60 1011.7
20260503070959 40 281 0.9 6.1 0.00 0.00 0.00 59 1011.8
20260503070458 40 5 2.6 6.1 0.00 0.00 0.00 59 1011.9